Ketchikan, AK

5:13 PM AKST on February 20, 2019 (GMT -0900)
Ketchikan International

Weather History for PAKT - January, 2019

Change the Weather History Date:

Wednesday, January 23, 2019

  Actual Average Record
Temperature  
Mean Temperature 36 °F -  
Max Temperature 41 °F 39 °F 51 °F (1968)
Min Temperature 32 °F 29 °F 5 °F (1972)
Degree Days  
Heating Degree Days 28    
Moisture  
Dew Point 36 °F    
Average Humidity 97    
Maximum Humidity 100    
Minimum Humidity 92    
Precipitation  
Precipitation 0.00 in - - ()
Sea Level Pressure  
Sea Level Pressure 30.31 in    
Wind  
Wind Speed 3 mph (SSE)    
Max Wind Speed 14 mph    
Max Gust Speed -    
Visibility 4 miles    
Events Fog    
Averages and records for this station are not official NWS values.
T = Trace of Precipitation, MM = Missing Value Source: NWS Daily Summary

Daily Weather History Graph

Daily Weather History Graph

Search for Another Location

Airport or City:

Astronomy

Jan. 23, 2019 Rise Set
Actual Time 7:54 AM AKST 4:03 PM AKST
Civil Twilight 7:12 AM AKST 4:45 PM AKST
Nautical Twilight 6:26 AM AKST 5:31 PM AKST
Astronomical Twilight 5:43 AM AKST 6:14 PM AKST
Moon 7:54 PM AKST (1/23) 9:31 AM AKST (1/23)
Length of Visible Light 9h 33m
Length of Day
8h 09m
Waning Gibbous, 90% of the Moon is Illuminated
Jan 23
Waning Gibbous
Jan 27
Last Quarter
Feb 4
New
Feb 12
First Quarter
Feb 19
Full

Hourly Weather History & Observations

Time (AKST) Temp. Windchill Dew Point Humidity Pressure Visibility Wind Dir Wind Speed Gust Speed Precip Events Conditions
12:36 AM 36.0 °F 33.3 °F 36.0 °F 100% 30.13 in 10.0 mi NW 3.5 mph - N/A   Scattered Clouds
12:53 AM 36.0 °F 33.3 °F 35.1 °F 97% 30.14 in 10.0 mi NW 3.5 mph - N/A   Clear
1:53 AM 35.1 °F - 34.0 °F 96% 30.16 in 10.0 mi Calm Calm - N/A   Partly Cloudy
2:07 AM 33.8 °F - 33.8 °F 100% 30.16 in 10.0 mi Calm Calm - N/A   Mostly Cloudy
2:33 AM 36.0 °F - 35.1 °F 97% 30.17 in 1.2 mi Calm Calm - N/A   Overcast
2:53 AM 36.0 °F 33.3 °F 36.0 °F 100% 30.18 in 0.2 mi SE 3.5 mph - N/A Fog Fog
3:50 AM 35.6 °F - 35.6 °F 100% 30.20 in 0.2 mi Calm Calm - N/A Fog Fog
3:53 AM 35.1 °F - 35.1 °F 100% 30.20 in 0.5 mi Calm Calm - N/A Fog Fog
4:15 AM 33.1 °F 28.7 °F 32.0 °F 96% 30.21 in 1.0 mi SSW 4.6 mph - N/A   Overcast
4:19 AM 34.0 °F 29.8 °F 32.0 °F 92% 30.21 in 3.0 mi SW 4.6 mph - N/A   Overcast
4:53 AM 34.0 °F - 34.0 °F 100% 30.23 in 9.0 mi Calm Calm - N/A   Overcast
4:59 AM 35.1 °F - 34.0 °F 96% 30.23 in 1.8 mi Calm Calm - N/A   Overcast
5:03 AM 35.1 °F 32.2 °F 34.0 °F 96% 30.23 in 0.8 mi NW 3.5 mph - N/A   Overcast
5:18 AM 35.1 °F - 34.0 °F 96% 30.23 in 0.2 mi Calm Calm - N/A Fog Fog
5:36 AM 33.1 °F - 33.1 °F 100% 30.24 in 0.2 mi Calm Calm - N/A Fog Fog
5:49 AM 33.8 °F 30.8 °F 32.0 °F 93% 30.24 in 2.5 mi WSW 3.5 mph - N/A   Mostly Cloudy
5:53 AM 32.0 °F - 32.0 °F 100% 30.25 in 8.0 mi Calm Calm - N/A   Mostly Cloudy
6:00 AM 33.1 °F - 32.0 °F 96% 30.25 in 10.0 mi Calm Calm - N/A   Partly Cloudy
6:15 AM 33.8 °F - 33.8 °F 100% 30.26 in 10.0 mi Calm Calm - N/A   Mostly Cloudy
6:53 AM 34.0 °F - 33.1 °F 96% 30.29 in 1.5 mi Calm Calm - N/A   Overcast
7:13 AM 34.0 °F - 34.0 °F 100% 30.29 in 0.2 mi Calm Calm - N/A Fog Fog
7:50 AM 35.6 °F 32.8 °F 35.6 °F 100% 30.30 in 0.2 mi SSW 3.5 mph - N/A Fog Fog
7:53 AM 35.1 °F 32.2 °F 34.0 °F 96% 30.30 in 0.2 mi SSW 3.5 mph - N/A Fog Fog
8:06 AM 35.1 °F 31.0 °F 35.1 °F 100% 30.30 in 0.2 mi South 4.6 mph - N/A Fog Fog
8:16 AM 35.1 °F 32.2 °F 35.1 °F 100% 30.31 in 0.5 mi South 3.5 mph - N/A Fog Fog
8:53 AM 36.0 °F 33.3 °F 36.0 °F 100% 30.32 in 1.0 mi South 3.5 mph - N/A Fog Fog
8:58 AM 36.0 °F 33.3 °F 36.0 °F 100% 30.32 in 1.0 mi SSW 3.5 mph - N/A   Mist
9:29 AM 36.0 °F 31.1 °F 36.0 °F 100% 30.34 in 0.2 mi SE 5.8 mph - N/A Fog Fog
9:53 AM 37.0 °F 34.5 °F 37.0 °F 100% 30.36 in 0.8 mi SSE 3.5 mph - N/A   Mist
10:08 AM 37.0 °F 33.3 °F 36.0 °F 96% 30.36 in 2.0 mi ESE 4.6 mph - N/A   Overcast
10:53 AM 37.0 °F 32.4 °F 37.0 °F 100% 30.37 in 0.5 mi SE 5.8 mph - N/A Fog Fog
11:29 AM 39.0 °F 35.7 °F 37.9 °F 96% 30.38 in 9.0 mi SE 4.6 mph - N/A   Overcast
11:53 AM 39.0 °F 33.4 °F 37.9 °F 96% 30.38 in 4.0 mi ESE 8.1 mph - N/A   Overcast
12:30 PM 39.2 °F 33.6 °F 37.4 °F 93% 30.40 in 1.5 mi ESE 8.1 mph - N/A   Overcast
12:53 PM 39.2 °F 33.6 °F 37.4 °F 93% 30.39 in 1.8 mi SE 8.1 mph - N/A   Overcast
1:53 PM 39.2 °F 32.0 °F 39.2 °F 100% 30.39 in 2.0 mi SE 11.5 mph - N/A   Overcast
2:14 PM 39.2 °F 31.2 °F 37.4 °F 93% 30.35 in 5.0 mi SE 13.8 mph - N/A   Overcast
2:53 PM 39.2 °F 33.6 °F 37.4 °F 93% 30.36 in 10.0 mi SSE 8.1 mph - N/A   Overcast
3:53 PM 39.2 °F 35.9 °F 37.4 °F 93% 30.41 in 10.0 mi East 4.6 mph - N/A   Overcast
4:53 PM 39.2 °F 35.9 °F 37.4 °F 93% 30.43 in 4.0 mi SSE 4.6 mph - N/A   Overcast
5:53 PM 39.9 °F 36.7 °F 39.0 °F 97% 30.43 in 5.0 mi South 4.6 mph - N/A   Overcast
6:53 PM 39.9 °F 35.1 °F 39.0 °F 97% 30.41 in 1.8 mi SSE 6.9 mph - N/A   Overcast
7:01 PM 39.9 °F 35.8 °F 39.0 °F 97% 30.40 in 2.0 mi SE 5.8 mph - N/A   Overcast
7:53 PM 39.9 °F 35.8 °F 39.0 °F 97% 30.42 in 8.0 mi South 5.8 mph - N/A   Overcast
8:53 PM 41.0 °F 37.1 °F 39.0 °F 93% 30.43 in 5.0 mi South 5.8 mph - N/A   Overcast
9:53 PM 41.0 °F 37.1 °F 39.9 °F 96% 30.44 in 10.0 mi South 5.8 mph - N/A   Overcast
10:53 PM 41.0 °F 37.1 °F 39.9 °F 96% 30.43 in 10.0 mi South 5.8 mph - N/A   Overcast
11:18 PM 41.0 °F 35.8 °F 39.0 °F 93% 30.42 in 10.0 mi SSE 8.1 mph - N/A   Overcast
11:57 PM 41.0 °F 34.7 °F 39.9 °F 96% 30.41 in 5.0 mi SSE 10.4 mph - N/A   Overcast